Andover, NJ

5:16 PM EDT on June 24, 2017 (GMT -0400)
Andover

Weather History for K12N - February, 2013

Change the Weather History Date:

Friday, February 8, 2013

  Actual Average (KFWN) Record (KFWN)
Temperature  
Mean Temperature 29 °F -  
Max Temperature 30 °F 32 °F 57 °F (2017)
Min Temperature 28 °F 10 °F -22 °F (1967)
Degree Days  
Heating Degree Days 36    
Moisture  
Dew Point 26 °F    
Average Humidity 84    
Maximum Humidity 92    
Minimum Humidity 69    
Precipitation  
Precipitation 0.47 in - - ()
Sea Level Pressure  
Sea Level Pressure 29.97 in    
Wind  
Wind Speed 3 mph (NNE)    
Max Wind Speed 9 mph    
Max Gust Speed 18 mph    
Averages and records for this station are not official NWS values.
T = Trace of Precipitation, MM = Missing Value Source: NWS Daily Summary

Daily Weather History Graph

Daily Weather History Graph

Search for Another Location

Airport or City:

Trip Planner

Search our weather history database for the weather conditions in past years. The results will help you decide how hot, cold, wet, or windy it might be!

Date:

Astronomy

Feb. 08, 2013 Rise Set
Actual Time 7:01 AM EST 5:25 PM EST
Civil Twilight 6:33 AM EST 5:53 PM EST
Nautical Twilight 6:00 AM EST 6:26 PM EST
Astronomical Twilight 5:28 AM EST 6:58 PM EST
Moon 5:28 AM EST (2/8) 3:55 PM EST (2/8)
Length of Visible Light 11h 20m
Length of Day
10h 23m
Waning Crescent, 3% of the Moon is Illuminated
Feb 8
Waning Crescent
Feb 10
New
Feb 17
First Quarter
Feb 25
Full
Mar 4
Last Quarter

Hourly Weather History & Observations

Time (EST) Temp. Windchill Dew Point Humidity Pressure Visibility Wind Dir Wind Speed Gust Speed Precip Events Conditions
12:54 AM 30.0 °F - 21.0 °F 69% 30.31 in - Calm Calm - N/A   Unknown
1:54 AM 30.9 °F - 23.0 °F 72% 30.27 in - Calm Calm - N/A   Unknown
2:54 AM 30.9 °F 25.2 °F 23.0 °F 72% 30.25 in - Variable 5.8 mph - N/A   Unknown
3:54 AM 30.9 °F - 23.0 °F 72% 30.21 in - Calm Calm - N/A   Unknown
4:54 AM 30.9 °F - 24.1 °F 76% 30.20 in - Calm Calm - N/A   Unknown
5:54 AM 30.9 °F 26.2 °F 24.1 °F 76% 30.17 in - Variable 4.6 mph - N/A   Unknown
6:54 AM 30.9 °F 25.2 °F 25.0 °F 79% 30.15 in - Variable 5.8 mph - N/A   Unknown
7:54 AM 30.0 °F 26.5 °F 26.1 °F 85% 30.13 in - Variable 3.5 mph - N/A   Unknown
8:54 AM 30.0 °F 26.5 °F 27.0 °F 88% 30.10 in - Variable 3.5 mph - N/A   Unknown
9:54 AM 30.0 °F 25.2 °F 27.0 °F 88% 30.05 in - North 4.6 mph - 0.01 in   Unknown
10:54 AM 30.9 °F 27.5 °F 28.0 °F 89% 30.01 in - Variable 3.5 mph - 0.01 in   Unknown
11:54 AM 30.9 °F 27.5 °F 28.0 °F 89% 29.96 in - Variable 3.5 mph - 0.02 in   Unknown
12:54 PM 30.9 °F 24.3 °F 28.0 °F 89% 29.90 in - Variable 6.9 mph - 0.03 in   Unknown
1:54 PM 30.9 °F 22.8 °F 28.0 °F 89% 29.85 in - NE 9.2 mph 18.4 mph 0.05 in   Unknown
2:54 PM 30.0 °F 22.4 °F 27.0 °F 88% 29.81 in - NNE 8.1 mph - 0.03 in   Unknown
3:54 PM 30.0 °F 24.1 °F 27.0 °F 88% 29.77 in - Variable 5.8 mph - 0.04 in   Unknown
4:54 PM 28.9 °F 22.8 °F 27.0 °F 92% 29.76 in - NNE 5.8 mph - 0.02 in   Unknown
5:54 PM 28.9 °F 23.9 °F 26.1 °F 89% 29.75 in - Variable 4.6 mph - 0.01 in   Unknown
6:54 PM 30.0 °F 22.4 °F 26.1 °F 85% 29.72 in - NE 8.1 mph 17.3 mph 0.01 in   Unknown
7:54 PM 28.9 °F 25.2 °F 26.1 °F 89% 29.73 in - Variable 3.5 mph - N/A   Unknown
8:54 PM 28.9 °F 20.4 °F 24.1 °F 82% 29.76 in - North 9.2 mph - N/A   Unknown
9:54 PM 28.0 °F 22.8 °F 26.1 °F 92% 29.77 in - North 4.6 mph - 0.06 in   Unknown
10:54 PM 28.9 °F 23.9 °F 26.1 °F 89% 29.77 in - NNE 4.6 mph - 0.07 in   Unknown
11:54 PM 28.9 °F - 27.0 °F 92% 29.79 in - Calm Calm - 0.11 in   Unknown